Volver al catálogo

KUIPER-00490

ActivoComunicacionesLEO
NORAD 69595·PAYLOAD·🇺🇸 United States

Lanzado Jun 17, 2026 desde Guiana Space Centre

Loading…

Próximos Pases (próximas 24 horas)

TLE

ActualizadoSource: CelesTrak SupGP

Época: Sep 14, 2026, 13:09 UTC

1 69595C 26140D   26257.54861111  .00005672  00000+0  74253-3 0  2576
2 69595  51.9037 340.4660 0000470  80.0993 228.6993 14.79924511    17

Sigue KUIPER-00490 en tiempo real con AllMySat

Download on the App Store